User: anonymous   Login
Location: Unspecified
(0.0000°N, 0.0000°E)
Time: 08:48:32
(UTC+00:00)
Language:

STARLINK-11181 [DTC] - Orbit

View from above orbital plane
View from above orbital plane
View from above satellite
View from above satellite

Ground track
Ground track

The orbit is defined by the following mean orbital elements,

1 60059U          26145.37446490 +.00000000 +00000-0 +10044-4 0 00001
2 60059  53.1589 173.3165 0000966  74.7676 285.3449 15.69695698    06
Epoch (UTC): 25 May 2026 08:59:13
Eccentricity: 0.0000966
inclination: 53.1589°
perigee height: 359 km
apogee height: 360 km
right ascension of ascending node: 173.3165°
argument of perigee: 74.7676°
revolutions per day: 15.69695698
mean anomaly at epoch: 285.3449°

The dashed part of the orbit path shows where the satellite is in the earth's shadow,  

DLR